Regional Weather Roundup
Issued by NWS Jackson, KY

Home | Current Version | Previous Version | Text Only | Print | Product List | Glossary Off
Versions: 1 2 3 4 5 6 7 8 9 10 11 12 13 14 15 16 17 18 19 20 21 22 23 24 25 26 27 28 29 30 31 32 33 34 35 36 37 38 39 40 41 42 43 44 45 46 47 48 49 50

312
ASUS43 KJKL 190310
RWRJKL

EAST KENTUCKY HOURLY WEATHER ROUNDUP
NATIONAL WEATHER SERVICE JACKSON KY
1000 PM EST THU JAN 18 2018

NOTE: "FAIR" INDICATES FEW OR NO CLOUDS BELOW 12,000 FEET WITH
NO SIGNIFICANT WEATHER AND/OR OBSTRUCTIONS TO VISIBILITY.

* THESE REPORTS ARE NOT UNDER NWS QUALITY CONTROL AND MAY NOT
  REPORT WEATHER SUCH AS PRECIPITATION AND FOG.

KYZ079-080-083-085-087-088-110-112-115-119-120-190400
...EASTERN KENTUCKY...

CITY           SKY/WX    TMP DP  RH WIND       PRES   REMARKS
JACKSON          N/A     24  12  60 SW5       30.28S WCI  18
LONDON           N/A     19  11  70 CALM      30.31S
SOMERSET*        N/A     21  14  73 CALM      30.35R
MONTICELLO*      N/A     12   7  80 VRB7      30.34S WCI   1
WILLIAMSBURG*    N/A     25  16  68 CALM      30.32S
MIDDLESBORO*     N/A     19  17  90 CALM      30.36S
HARLAN APT*      N/A     23  18  80 CALM      30.32S
PIKE CO APT*     N/A     28  11  49 CALM      30.29S
BIG SANDY APT*   N/A     28  11  49 SW5       30.29S WCI  23
MOREHEAD APT*    N/A     27   9  46 SW12      30.30S WCI  16
ASHLAND*         N/A     16  12  84 CALM      30.31S
$$

KYZ035-036-041-042-044-050-067-078-099-190400
...CENTRAL KENTUCKY...

CITY           SKY/WX    TMP DP  RH WIND       PRES   REMARKS
MT STERLING*     N/A     23  14  68 SW10      30.30S WCI  12
FLEMING/MASON*   N/A     20  11  68 S12       30.28S WCI   8
DANVILLE*        N/A     21  12  68 S5        30.31S WCI  15
LEXINGTON        N/A     22  10  60 S10       30.28F WCI  11
FRANKFORT        N/A     23  10  57 S10       30.27F WCI  12
LOUISVILLE       N/A     27  13  55 S7        30.29S WCI  19
LEBANON*         N/A     25  12  58 S12       30.30F WCI  14
GLASGOW*         N/A     22  14  71 S3        30.33F
BOWLING GREEN    N/A     23  14  68 S5        30.34F WCI  17
$$

KYZ091>093-OHZ055-061-077-WVZ005-015-034-035-042-190400
...SOUTHERN OHIO/WEST VIRGINIA...

CITY           SKY/WX    TMP DP  RH WIND       PRES   REMARKS
COVINGTON        N/A     25  14  63 SW10      30.21S WCI  15
COLUMBUS         N/A     24  12  60 SW10      30.19F WCI  14
DAYTON           N/A     25  13  60 SW17      30.16S WCI  12
WILMINGTON       N/A     20  12  71 SW14      30.19R WCI   7
HUNTINGTON       N/A     26  10  50 S7        30.29R WCI  18
CHARLESTON       N/A     22  12  65 S3        30.29R
BECKLEY          N/A     22   8  55 SW7       30.22S WCI  13
BLUEFIELD        N/A     22   6  50 W12       30.22S WCI  10
LOGAN CO APT*    N/A     27  10  50 CALM      30.27R
$$

VAZ002-007-008-TNZ017-027-036-066-071-190400
...SOUTHWEST VIRGINIA/EAST TENNESSEE...

CITY           SKY/WX    TMP DP  RH WIND       PRES   REMARKS
WISE*            N/A     21  14  73 S3        30.26S
JONESVILLE*      N/A     18  14  86 CALM      30.36F
ABINGDON*        N/A     20  12  71 CALM      30.31R
BRISTOL          N/A     17  12  80 CALM      30.35R
MORRISTOWN*    CLEAR     21  14  73 CALM      30.34S
SEVIERVILLE*   CLEAR     19  14  79 CALM      30.37S
KNOXVILLE        N/A     25  14  63 CALM      30.36S
LAFOLLETTE*    CLEAR     19  16  86 CALM      30.37F
OAK RIDGE        N/A     23  16  74 CALM      30.36F
CROSSVILLE       N/A     22   9  57 CALM      30.29F
NASHVILLE        N/A     26  15  63 S3        30.36S
$$

...KEY TO REMARKS...
VSB - VISIBILITY IN MILES
WCI - WIND CHILL INDEX
HX  - HEAT INDEX

$$




USA.gov is the U.S. government's official web portal to all federal, state and local government web resources and services.